Powrót do katalogu

SL-12 R/B(2)

AktywnyHEO
NORAD 23845·ROCKET BODY·🇷🇺 Russia

Wystrzelony Apr 8, 1996 z Baikonur Cosmodrome

Loading…

Następne Przeloty (najbliższe 24 godziny)

TLE

ŚwieżeSource: Space-Track

Epoka: Sep 14, 2026, 21:58 UTC

1 23845U 96021D   26257.91576072 -.00000136  00000-0  00000-0 0  9990
2 23845   4.9870 221.5023 3968146 290.8023  42.4157  1.64338232182688

Śledź SL-12 R/B(2) w czasie rzeczywistym z AllMySat

Download on the App Store